FENGYUN 1C DEB

Satellite information

Favourite Embed

Satellite Type and Status

DEBRISIN ORBIT

Key statistics

Satellite FENGYUN 1C DEB at a glance.

Uptime

9556

Days in orbit

Revolutions

≈ 14.9

Per day

Orbit

SSO

Sun Synchronous Orbit

Inclination

99.0

Latest

Satellite identification and parameters

Extended collection of information and parameters for FENGYUN 1C DEB.

Object identification

Identified? True

Debris? True

Object name: FENGYUN 1C DEB

International designator: 1999-025CHJ

Object number (NORAD): 31820

Object ID (CCSDS): 31820

Country: PEOPLES REPUBLIC OF CHINA (PRC)

Current information (Y/N): Y

RCS size: SMALL

Orbital parameters

Period: 96.885 minutes

Inclination: 98.9507 deg

SMA: 6987.661 km

Apoapsis: 725.163 km

Periapsis: 493.888 km

RAAN: 332.9467 deg

Eccentricy: 0.0165488

Argument of periapsis: 173.6544 deg

Mean anomaly: 186.6818 deg

Mean motion: 14.8629506 rev/day

Mean motion (dot): 0.00013249 rev/day2

B* drag term: 0.0011775 1/REarth

Two-line elements (TLE)

Creation date: July 2, 2025, 10:46 p.m.

Reference frame: TEME

Reference center: EARTH

Epoch: July 2, 2025, 8:50 a.m. UTC

TLE line 0: 0 FENGYUN 1C DEB

TLE line 1: 1 31820U 99025CHJ 25183.36834331 .00013249 00000-0 11775-2 0 9991

TLE line 2: 2 31820 98.9507 332.9467 0165488 173.6544 186.6818 14.86295060958225

Live tracking on map

Real-time ground track for satellite FENGYUN 1C DEB.

In-orbit conjunctions

A list of the most updated potential collisions computed for object FENGYUN 1C DEB.

Target Orbit TCA Probability of collision Miss distance Type
COSMOS 1275 DEB LEO 2024-11-14 18:48:50 0.0002289084 480.0 (m) DEBRIS

Associated space launch

Chinese polar orbiting meteorological satellite

FENGYUN 1C DEB was lifted into orbit during the mission ‘Long March 4B | Feng Yun 1C’, on board a Long March 4B space rocket.

The launch took place on May 10, 1999, 1:33 a.m. from Launch Complex 7.

For more information about the launch, click the button.

Launch to space Long March 4B | Feng Yun 1C
Long March 4B | Feng Yun 1C

Agency: N/A

Status: Launch Successful

Launch date: May 10, 1999, 1:33 a.m. UTC

Rocket: Long March 4B

Launch pad: Launch Complex 7

Location: Taiyuan Satellite Launch Center, People's Republic of China

...

Latest news about this satellite

There are no fresh news available about this satellite. Check back as we update our databases every day.


Newsletter sign-up

Weekly statistics, charts and insights to help you stay on top of the space industry.